| time (UTC) | temp F | wind direction | speed MPH | gust MPH | rain 1hr in | rain 24hr in | rain mn in | humidity % | barometer mb |
| 20260507103732 | 69 | 71 | 1.0 | 3.0 | 0.00 | 0.00 | 0.00 | 86 | 1018.1 |
| 20260507103228 | 69 | 62 | 2.0 | 2.0 | 0.00 | 0.00 | 0.00 | 87 | 1018.0 |
| 20260507102725 | 69 | 69 | 1.0 | 2.0 | 0.00 | 0.00 | 0.00 | 88 | 1018.1 |
| 20260507102221 | 69 | 33 | 2.0 | 3.0 | 0.00 | 0.00 | 0.00 | 88 | 1018.1 |
| 20260507101717 | 69 | 82 | 2.0 | 3.0 | 0.00 | 0.00 | 0.00 | 87 | 1018.3 |
| 20260507101213 | 69 | 53 | 2.0 | 3.0 | 0.00 | 0.00 | 0.00 | 88 | 1018.3 |
| 20260507100710 | 69 | 25 | 1.0 | 2.0 | 0.00 | 0.00 | 0.00 | 88 | 1018.4 |
| 20260507100209 | 69 | 54 | 2.0 | 2.0 | 0.00 | 0.00 | 0.00 | 87 | 1018.3 |
| 20260507095706 | 69 | 36 | 0.0 | 3.0 | 0.00 | 0.17 | 0.17 | 87 | 1018.4 |
| 20260507095202 | 69 | 60 | 2.0 | 2.0 | 0.00 | 0.17 | 0.17 | 87 | 1018.4 |
| 20260507094659 | 70 | 50 | 2.0 | 2.0 | 0.00 | 0.17 | 0.17 | 87 | 1018.2 |
| 20260507094156 | 69 | 73 | 2.0 | 3.0 | 0.00 | 0.17 | 0.17 | 86 | 1018.2 |
| 20260507093653 | 70 | 74 | 2.0 | 3.0 | 0.00 | 0.17 | 0.17 | 88 | 1018.4 |
| 20260507093152 | 70 | 82 | 1.0 | 2.0 | 0.00 | 0.17 | 0.17 | 88 | 1018.4 |
| 20260507092649 | 70 | 84 | 2.0 | 3.0 | 0.00 | 0.17 | 0.17 | 87 | 1018.5 |
| 20260507092145 | 70 | 62 | 2.0 | 2.0 | 0.00 | 0.17 | 0.17 | 87 | 1018.3 |
| 20260507091641 | 70 | 40 | 1.0 | 2.0 | 0.00 | 0.17 | 0.17 | 87 | 1018.3 |
| 20260507091138 | 70 | 35 | 1.0 | 2.0 | 0.00 | 0.17 | 0.17 | 88 | 1018.5 |
| 20260507090633 | 71 | 51 | 2.0 | 2.0 | 0.00 | 0.17 | 0.17 | 88 | 1018.4 |
| 20260507090131 | 71 | 39 | 1.0 | 2.0 | 0.00 | 0.17 | 0.17 | 88 | 1018.5 |
| 20260507085628 | 71 | 59 | 2.0 | 2.0 | 0.00 | 0.17 | 0.17 | 88 | 1018.5 |
| 20260507085124 | 71 | 39 | 0.0 | 2.0 | 0.00 | 0.17 | 0.17 | 88 | 1018.5 |
| 20260507084621 | 70 | 79 | 1.0 | 2.0 | 0.00 | 0.17 | 0.17 | 89 | 1018.7 |
| 20260507084118 | 70 | 49 | 2.0 | 2.0 | 0.00 | 0.17 | 0.17 | 90 | 1018.6 |
| 20260507083615 | 70 | 35 | 1.0 | 2.0 | 0.00 | 0.17 | 0.17 | 90 | 1018.8 |
| 20260507083112 | 70 | 49 | 1.0 | 2.0 | 0.00 | 0.17 | 0.17 | 91 | 1018.7 |
| 20260507082607 | 70 | 40 | 1.0 | 2.0 | 0.00 | 0.17 | 0.17 | 91 | 1018.6 |
| 20260507082104 | 70 | 72 | 1.0 | 2.0 | 0.00 | 0.17 | 0.17 | 90 | 1018.3 |
| 20260507081600 | 71 | 47 | 0.0 | 2.0 | 0.00 | 0.17 | 0.17 | 91 | 1018.4 |
| 20260507081057 | 71 | 60 | 2.0 | 2.0 | 0.00 | 0.17 | 0.17 | 90 | 1018.4 |
| 20260507080553 | 71 | 56 | 2.0 | 2.0 | 0.00 | 0.17 | 0.17 | 90 | 1018.2 |
| 20260507080050 | 71 | 39 | 1.0 | 2.0 | 0.00 | 0.17 | 0.17 | 90 | 1018.2 |
| 20260507075545 | 71 | 29 | 2.0 | 2.0 | 0.00 | 0.17 | 0.17 | 89 | 1018.2 |
| 20260507075042 | 71 | 38 | 2.0 | 2.0 | 0.00 | 0.17 | 0.17 | 89 | 1018.3 |
| 20260507074538 | 71 | 102 | 1.0 | 2.0 | 0.00 | 0.17 | 0.17 | 89 | 1018.3 |
| 20260507074037 | 71 | 36 | 1.0 | 2.0 | 0.00 | 0.17 | 0.17 | 89 | 1018.3 |
| 20260507073533 | 71 | 35 | 2.0 | 2.0 | 0.00 | 0.17 | 0.17 | 88 | 1018.2 |
| 20260507073029 | 71 | 16 | 2.0 | 2.0 | 0.00 | 0.17 | 0.17 | 88 | 1018.2 |
| 20260507072527 | 72 | 3 | 2.0 | 2.0 | 0.00 | 0.17 | 0.17 | 87 | 1018.4 |
| 20260507072024 | 72 | 24 | 2.0 | 2.0 | 0.00 | 0.17 | 0.17 | 86 | 1018.2 |
| 20260507071521 | 72 | 42 | 1.0 | 2.0 | 0.00 | 0.17 | 0.17 | 85 | 1018.1 |
| 20260507071018 | 72 | 68 | 1.0 | 2.0 | 0.00 | 0.17 | 0.17 | 83 | 1018.0 |
| 20260507070515 | 72 | 94 | 2.0 | 2.0 | 0.00 | 0.17 | 0.17 | 82 | 1018.0 |
| 20260507070013 | 73 | 51 | 0.0 | 2.0 | 0.00 | 0.17 | 0.17 | 81 | 1017.9 |
| 20260507065508 | 73 | 77 | 0.0 | 2.0 | 0.00 | 0.17 | 0.17 | 81 | 1017.9 |
| 20260507065006 | 73 | 83 | 1.0 | 2.0 | 0.00 | 0.17 | 0.17 | 81 | 1018.0 |
| 20260507064504 | 73 | 80 | 1.0 | 2.0 | 0.00 | 0.17 | 0.17 | 83 | 1017.7 |
| 20260507064001 | 74 | 78 | 1.0 | 2.0 | 0.00 | 0.17 | 0.17 | 85 | 1017.8 |
| 20260507063458 | 74 | 115 | 1.0 | 2.0 | 0.00 | 0.17 | 0.17 | 85 | 1017.7 |
| 20260507062955 | 74 | 89 | 0.0 | 1.0 | 0.00 | 0.17 | 0.17 | 87 | 1017.7 |
| 20260507062452 | 74 | 104 | 0.0 | 1.0 | 0.00 | 0.17 | 0.17 | 87 | 1017.6 |
| 20260507061950 | 75 | 19 | 1.0 | 1.0 | 0.00 | 0.17 | 0.17 | 87 | 1017.4 |
| 20260507061447 | 75 | 350 | 0.0 | 2.0 | 0.00 | 0.17 | 0.17 | 87 | 1017.2 |
| 20260507060946 | 75 | 354 | 1.0 | 1.0 | 0.00 | 0.17 | 0.17 | 87 | 1017.4 |
| 20260507060442 | 75 | 299 | 0.0 | 2.0 | 0.00 | 0.17 | 0.17 | 88 | 1017.2 |
| 20260507055939 | 75 | 322 | 0.0 | 1.0 | 0.00 | 0.17 | 0.17 | 87 | 1017.1 |
| 20260507055434 | 75 | 218 | 1.0 | 1.0 | 0.00 | 0.17 | 0.17 | 87 | 1017.1 |
| 20260507054931 | 75 | 18 | 0.0 | 1.0 | 0.00 | 0.17 | 0.17 | 88 | 1017.1 |
| 20260507054427 | 75 | 209 | 0.0 | 1.0 | 0.00 | 0.17 | 0.17 | 87 | 1017.1 |
| 20260507053925 | 75 | 33 | 1.0 | 2.0 | 0.00 | 0.17 | 0.17 | 86 | 1016.9 |
| 20260507053422 | 75 | 114 | 1.0 | 2.0 | 0.00 | 0.17 | 0.17 | 87 | 1016.9 |
| 20260507052921 | 75 | 200 | 2.0 | 2.0 | 0.00 | 0.17 | 0.17 | 87 | 1016.9 |
| 20260507052418 | 75 | 213 | 1.0 | 2.0 | 0.00 | 0.17 | 0.17 | 87 | 1017.0 |
| 20260507051914 | 75 | 171 | 1.0 | 3.0 | 0.00 | 0.17 | 0.17 | 86 | 1017.0 |
| 20260507051412 | 75 | 131 | 0.0 | 1.0 | 0.00 | 0.17 | 0.17 | 87 | 1016.9 |
| 20260507050909 | 75 | 277 | 2.0 | 4.0 | 0.00 | 0.17 | 0.17 | 86 | 1016.8 |
| 20260507050405 | 75 | 151 | 1.0 | 2.0 | 0.00 | 0.17 | 0.17 | 87 | 1016.7 |
| 20260507045902 | 75 | 127 | 2.0 | 3.0 | 0.00 | 0.17 | 0.17 | 87 | 1016.6 |
| 20260507045359 | 76 | 263 | 0.0 | 3.0 | 0.00 | 0.17 | 0.17 | 86 | 1016.8 |
| 20260507044856 | 76 | 7 | 1.0 | 3.0 | 0.00 | 0.17 | 0.17 | 86 | 1016.6 |
| 20260507044352 | 76 | 247 | 0.0 | 2.0 | 0.00 | 0.17 | 0.17 | 84 | 1016.4 |
| 20260507043848 | 77 | 97 | 2.0 | 3.0 | 0.00 | 0.17 | 0.17 | 84 | 1016.4 |
| 20260507043345 | 77 | 308 | 1.0 | 4.0 | 0.00 | 0.17 | 0.17 | 83 | 1016.3 |
| 20260507042842 | 78 | 25 | 2.0 | 4.0 | 0.00 | 0.17 | 0.17 | 82 | 1016.2 |
| 20260507042337 | 78 | 305 | 2.0 | 2.0 | 0.00 | 0.17 | 0.17 | 81 | 1016.3 |
| 20260507041834 | 79 | 243 | 2.0 | 3.0 | 0.00 | 0.17 | 0.17 | 79 | 1015.9 |
| 20260507041331 | 79 | 358 | 2.0 | 2.0 | 0.00 | 0.17 | 0.17 | 78 | 1016.1 |
| 20260507040828 | 79 | 255 | 1.0 | 3.0 | 0.00 | 0.17 | 0.17 | 79 | 1015.9 |
| 20260507040324 | 80 | 207 | 2.0 | 3.0 | 0.00 | 0.17 | 0.17 | 76 | 1015.8 |
| 20260507035820 | 80 | 301 | 2.0 | 4.0 | 0.00 | 0.17 | 0.17 | 76 | 1015.7 |
| 20260507035316 | 81 | 284 | 0.0 | 2.0 | 0.00 | 0.17 | 0.17 | 74 | 1015.6 |
| 20260507034814 | 80 | 246 | 0.0 | 4.0 | 0.00 | 0.17 | 0.17 | 76 | 1015.7 |
| 20260507034310 | 79 | 248 | 1.0 | 2.0 | 0.00 | 0.17 | 0.17 | 77 | 1015.5 |
| 20260507033809 | 79 | 272 | 2.0 | 4.0 | 0.00 | 0.17 | 0.17 | 77 | 1015.6 |
| 20260507033306 | 78 | 218 | 2.0 | 3.0 | 0.00 | 0.17 | 0.17 | 76 | 1015.5 |
| 20260507032803 | 79 | 143 | 0.0 | 4.0 | 0.00 | 0.17 | 0.17 | 77 | 1015.4 |
| 20260507032259 | 79 | 210 | 3.0 | 3.0 | 0.00 | 0.17 | 0.17 | 76 | 1015.6 |
| 20260507031755 | 80 | 218 | 1.0 | 4.0 | 0.00 | 0.17 | 0.17 | 75 | 1015.5 |
| 20260507031252 | 81 | 0 | 0.0 | 2.0 | 0.00 | 0.17 | 0.17 | 74 | 1015.6 |
| 20260507030749 | 81 | 228 | 0.0 | 3.0 | 0.00 | 0.17 | 0.17 | 72 | 1015.4 |
| 20260507030247 | 80 | 309 | 2.0 | 4.0 | 0.00 | 0.17 | 0.17 | 72 | 1015.3 |
| 20260507025744 | 81 | 358 | 1.0 | 3.0 | 0.00 | 0.17 | 0.17 | 74 | 1015.5 |
| 20260507025240 | 81 | 204 | 4.0 | 4.0 | 0.00 | 0.17 | 0.17 | 72 | 1015.3 |
| 20260507024739 | 80 | 220 | 0.0 | 3.0 | 0.00 | 0.17 | 0.17 | 72 | 1015.2 |
| 20260507024236 | 79 | 305 | 0.0 | 3.0 | 0.00 | 0.17 | 0.17 | 73 | 1015.4 |
| 20260507023731 | 80 | 155 | 1.0 | 4.0 | 0.00 | 0.17 | 0.17 | 70 | 1015.5 |
| 20260507023229 | 80 | 217 | 1.0 | 2.0 | 0.00 | 0.17 | 0.17 | 69 | 1015.5 |
| 20260507022726 | 80 | 213 | 2.0 | 4.0 | 0.00 | 0.17 | 0.17 | 74 | 1015.3 |
| 20260507022221 | 79 | 211 | 3.0 | 3.0 | 0.00 | 0.17 | 0.17 | 72 | 1015.3 |
| 20260507021718 | 79 | 324 | 1.0 | 2.0 | 0.00 | 0.17 | 0.17 | 74 | 1015.2 |
| 20260507021213 | 79 | 177 | 1.0 | 3.0 | 0.00 | 0.17 | 0.17 | 73 | 1015.4 |
| 20260507020712 | 80 | 214 | 1.0 | 3.0 | 0.00 | 0.17 | 0.17 | 71 | 1015.1 |
| 20260507020208 | 81 | 209 | 4.0 | 4.0 | 0.00 | 0.17 | 0.17 | 71 | 1015.4 |
| 20260507015706 | 81 | 346 | 0.0 | 4.0 | 0.00 | 0.17 | 0.17 | 68 | 1015.2 |
| 20260507015203 | 82 | 139 | 1.0 | 5.0 | 0.00 | 0.17 | 0.17 | 68 | 1015.3 |
| 20260507014659 | 83 | 231 | 1.0 | 4.0 | 0.00 | 0.17 | 0.17 | 70 | 1015.4 |
| 20260507014155 | 82 | 296 | 1.0 | 4.0 | 0.00 | 0.17 | 0.17 | 72 | 1015.3 |
| 20260507013653 | 81 | 208 | 3.0 | 4.0 | 0.00 | 0.17 | 0.17 | 69 | 1015.4 |
| 20260507013150 | 82 | 225 | 2.0 | 4.0 | 0.00 | 0.17 | 0.17 | 72 | 1015.4 |
| 20260507012648 | 82 | 286 | 2.0 | 5.0 | 0.00 | 0.17 | 0.17 | 71 | 1015.5 |
| 20260507012142 | 81 | 276 | 1.0 | 4.0 | 0.00 | 0.17 | 0.17 | 72 | 1015.4 |
| 20260507011641 | 82 | 349 | 1.0 | 2.0 | 0.00 | 0.17 | 0.17 | 71 | 1015.6 |
| 20260507011137 | 82 | 278 | 2.0 | 2.0 | 0.00 | 0.17 | 0.17 | 70 | 1015.4 |
| 20260507010631 | 81 | 217 | 0.0 | 4.0 | 0.00 | 0.17 | 0.17 | 74 | 1015.5 |
| 20260507010127 | 80 | 79 | 1.0 | 2.0 | 0.00 | 0.17 | 0.17 | 72 | 1015.5 |
| 20260507005625 | 80 | 260 | 1.0 | 3.0 | 0.00 | 0.17 | 0.17 | 75 | 1015.6 |
| 20260507005121 | 80 | 189 | 0.0 | 3.0 | 0.00 | 0.17 | 0.17 | 76 | 1015.7 |
| 20260507004618 | 80 | 128 | 1.0 | 3.0 | 0.00 | 0.17 | 0.17 | 73 | 1015.9 |
| 20260507004116 | 80 | 345 | 0.0 | 3.0 | 0.00 | 0.17 | 0.17 | 73 | 1015.6 |
| 20260507003612 | 80 | 228 | 2.0 | 3.0 | 0.00 | 0.17 | 0.17 | 73 | 1015.9 |
| 20260507003107 | 80 | 308 | 3.0 | 3.0 | 0.00 | 0.17 | 0.17 | 76 | 1015.9 |
| 20260507002604 | 80 | 276 | 3.0 | 4.0 | 0.00 | 0.17 | 0.17 | 78 | 1016.0 |
| 20260507002059 | 80 | 203 | 0.0 | 3.0 | 0.00 | 0.17 | 0.17 | 78 | 1016.1 |
| 20260507001556 | 80 | 341 | 0.0 | 3.0 | 0.00 | 0.17 | 0.17 | 77 | 1015.8 |
| 20260507001054 | 79 | 234 | 0.0 | 3.0 | 0.00 | 0.17 | 0.17 | 78 | 1015.8 |
| 20260507000550 | 80 | 162 | 0.0 | 4.0 | 0.00 | 0.17 | 0.17 | 75 | 1015.9 |
| 20260507000045 | 80 | 107 | 0.0 | 2.0 | 0.00 | 0.17 | 0.17 | 77 | 1016.0 |
| 20260506235543 | 80 | 216 | 2.0 | 2.0 | 0.00 | 0.17 | 0.17 | 78 | 1016.2 |
| 20260506235038 | 80 | 202 | 2.0 | 4.0 | 0.00 | 0.17 | 0.17 | 76 | 1016.0 |
| 20260506234536 | 81 | 237 | 2.0 | 3.0 | 0.00 | 0.17 | 0.17 | 76 | 1016.2 |
| 20260506234033 | 82 | 211 | 0.0 | 6.0 | 0.00 | 0.17 | 0.17 | 75 | 1016.2 |
| 20260506233530 | 82 | 215 | 5.0 | 5.0 | 0.00 | 0.17 | 0.17 | 74 | 1016.3 |
| 20260506233027 | 83 | 271 | 2.0 | 3.0 | 0.00 | 0.17 | 0.17 | 74 | 1016.3 |
| 20260506232523 | 82 | 268 | 2.0 | 3.0 | 0.00 | 0.17 | 0.17 | 76 | 1016.3 |
| 20260506232018 | 80 | 88 | 1.0 | 3.0 | 0.00 | 0.17 | 0.17 | 75 | 1016.4 |
| 20260506231516 | 80 | 215 | 1.0 | 4.0 | 0.00 | 0.17 | 0.17 | 74 | 1016.4 |
| 20260506231014 | 80 | 281 | 2.0 | 4.0 | 0.00 | 0.17 | 0.17 | 77 | 1016.7 |
| 20260506230510 | 79 | 349 | 1.0 | 4.0 | 0.00 | 0.17 | 0.17 | 77 | 1016.7 |
| 20260506230008 | 79 | 233 | 2.0 | 3.0 | 0.00 | 0.17 | 0.17 | 80 | 1016.7 |
| 20260506225504 | 78 | 281 | 1.0 | 4.0 | 0.00 | 0.17 | 0.17 | 80 | 1016.9 |
| 20260506225000 | 79 | 255 | 2.0 | 4.0 | 0.00 | 0.17 | 0.17 | 81 | 1017.0 |
| 20260506224457 | 80 | 128 | 0.0 | 4.0 | 0.00 | 0.17 | 0.17 | 78 | 1016.9 |
| 20260506223954 | 79 | 126 | 1.0 | 3.0 | 0.00 | 0.17 | 0.17 | 80 | 1016.9 |
| 20260506223450 | 79 | 251 | 0.0 | 2.0 | 0.00 | 0.17 | 0.17 | 80 | 1016.9 |
| 20260506222947 | 79 | 195 | 1.0 | 2.0 | 0.00 | 0.17 | 0.17 | 79 | 1016.7 |
| 20260506222444 | 79 | 318 | 2.0 | 4.0 | 0.00 | 0.17 | 0.17 | 79 | 1016.8 |
| 20260506221940 | 80 | 251 | 1.0 | 3.0 | 0.00 | 0.17 | 0.17 | 78 | 1017.0 |
| 20260506221437 | 80 | 256 | 1.0 | 4.0 | 0.00 | 0.17 | 0.17 | 80 | 1016.9 |
| 20260506220936 | 80 | 306 | 2.0 | 4.0 | 0.00 | 0.17 | 0.17 | 77 | 1016.8 |
| 20260506220431 | 81 | 261 | 0.0 | 4.0 | 0.00 | 0.17 | 0.17 | 74 | 1016.8 |
| 20260506215927 | 80 | 244 | 1.0 | 3.0 | 0.00 | 0.17 | 0.17 | 75 | 1017.0 |
| 20260506215424 | 80 | 276 | 2.0 | 4.0 | 0.00 | 0.17 | 0.17 | 74 | 1016.9 |
| 20260506214919 | 80 | 311 | 3.0 | 4.0 | 0.00 | 0.17 | 0.17 | 76 | 1016.8 |
| 20260506214417 | 80 | 231 | 2.0 | 3.0 | 0.00 | 0.17 | 0.17 | 73 | 1016.6 |
| 20260506213914 | 81 | 229 | 3.0 | 4.0 | 0.00 | 0.17 | 0.17 | 71 | 1016.7 |
| 20260506213412 | 81 | 256 | 2.0 | 2.0 | 0.00 | 0.17 | 0.17 | 75 | 1017.2 |
| 20260506212909 | 81 | 276 | 2.0 | 4.0 | 0.00 | 0.17 | 0.17 | 76 | 1017.1 |
| 20260506212405 | 80 | 288 | 1.0 | 4.0 | 0.00 | 0.17 | 0.17 | 76 | 1017.4 |
| 20260506211859 | 80 | 237 | 1.0 | 4.0 | 0.00 | 0.17 | 0.17 | 76 | 1017.1 |
| 20260506211356 | 79 | 328 | 1.0 | 4.0 | 0.00 | 0.17 | 0.17 | 77 | 1017.5 |
| 20260506210853 | 80 | 297 | 2.0 | 4.0 | 0.00 | 0.17 | 0.17 | 77 | 1017.7 |
| 20260506210350 | 80 | 261 | 2.0 | 3.0 | 0.00 | 0.17 | 0.17 | 78 | 1017.8 |
| 20260506205848 | 80 | 232 | 1.0 | 4.0 | 0.00 | 0.17 | 0.17 | 77 | 1017.5 |
| 20260506205343 | 80 | 213 | 1.0 | 2.0 | 0.00 | 0.17 | 0.17 | 77 | 1017.4 |
| 20260506204840 | 79 | 245 | 0.0 | 5.0 | 0.00 | 0.17 | 0.17 | 77 | 1017.4 |
| 20260506204337 | 78 | 106 | 1.0 | 2.0 | 0.00 | 0.17 | 0.17 | 80 | 1017.1 |
| 20260506203835 | 79 | 259 | 2.0 | 4.0 | 0.00 | 0.17 | 0.17 | 80 | 1017.5 |
| 20260506203332 | 79 | 122 | 0.0 | 3.0 | 0.00 | 0.17 | 0.17 | 80 | 1017.5 |
| 20260506202829 | 78 | 194 | 3.0 | 4.0 | 0.00 | 0.17 | 0.17 | 80 | 1017.5 |
| 20260506202326 | 79 | 319 | 0.0 | 3.0 | 0.00 | 0.17 | 0.17 | 81 | 1017.4 |
| 20260506201822 | 78 | 293 | 2.0 | 3.0 | 0.00 | 0.17 | 0.17 | 80 | 1017.4 |
| 20260506201320 | 78 | 220 | 3.0 | 5.0 | 0.00 | 0.17 | 0.17 | 79 | 1017.5 |
| 20260506200816 | 80 | 215 | 0.0 | 5.0 | 0.00 | 0.17 | 0.17 | 77 | 1017.5 |
| 20260506200312 | 80 | 280 | 1.0 | 4.0 | 0.00 | 0.17 | 0.17 | 80 | 1017.6 |
| 20260506195809 | 79 | 246 | 2.0 | 4.0 | 0.00 | 0.17 | 0.17 | 83 | 1017.4 |
| 20260506195306 | 78 | 225 | 1.0 | 5.0 | 0.00 | 0.17 | 0.17 | 79 | 1017.4 |
| 20260506194803 | 78 | 161 | 2.0 | 3.0 | 0.00 | 0.17 | 0.17 | 82 | 1017.1 |
| 20260506194259 | 78 | 191 | 2.0 | 4.0 | 0.00 | 0.17 | 0.17 | 80 | 1017.2 |
| 20260506193757 | 79 | 166 | 0.0 | 2.0 | 0.00 | 0.17 | 0.17 | 79 | 1017.1 |
| 20260506193254 | 78 | 280 | 1.0 | 2.0 | 0.00 | 0.17 | 0.17 | 81 | 1017.4 |
| 20260506192750 | 78 | 216 | 2.0 | 3.0 | 0.00 | 0.17 | 0.17 | 79 | 1017.2 |
| 20260506192247 | 79 | 208 | 1.0 | 2.0 | 0.00 | 0.17 | 0.17 | 80 | 1017.1 |
| 20260506191743 | 78 | 311 | 0.0 | 1.0 | 0.00 | 0.17 | 0.17 | 79 | 1016.9 |
| 20260506191240 | 78 | 306 | 0.0 | 0.0 | 0.00 | 0.17 | 0.17 | 81 | 1017.1 |
| 20260506190737 | 78 | 103 | 0.0 | 3.0 | 0.00 | 0.17 | 0.17 | 77 | 1017.5 |
| 20260506190234 | 78 | 315 | 2.0 | 2.0 | 0.00 | 0.17 | 0.17 | 79 | 1017.2 |
| 20260506185731 | 77 | 226 | 0.0 | 2.0 | 0.00 | 0.17 | 0.17 | 80 | 1017.4 |
| 20260506185227 | 77 | 309 | 2.0 | 2.0 | 0.00 | 0.17 | 0.17 | 79 | 1017.4 |
| 20260506184725 | 77 | 265 | 0.0 | 2.0 | 0.00 | 0.17 | 0.17 | 79 | 1017.4 |
| 20260506184222 | 77 | 1 | 0.0 | 2.0 | 0.00 | 0.17 | 0.17 | 81 | 1017.4 |
| 20260506183719 | 77 | 202 | 0.0 | 1.0 | 0.00 | 0.17 | 0.17 | 79 | 1017.2 |
| 20260506183215 | 76 | 43 | 0.0 | 2.0 | 0.00 | 0.17 | 0.17 | 80 | 1016.9 |
| 20260506182712 | 75 | 13 | 1.0 | 2.0 | 0.00 | 0.17 | 0.17 | 82 | 1017.2 |
| 20260506182209 | 75 | 71 | 0.0 | 1.0 | 0.00 | 0.17 | 0.17 | 86 | 1017.4 |
| 20260506181707 | 74 | 31 | 0.0 | 2.0 | 0.00 | 0.17 | 0.17 | 91 | 1017.5 |
| 20260506181204 | 72 | 301 | 0.0 | 1.0 | 0.00 | 0.17 | 0.17 | 96 | 1017.6 |
| 20260506180701 | 70 | 98 | 2.0 | 2.0 | 0.00 | 0.17 | 0.17 | 99 | 1017.5 |
| 20260506180157 | 69 | 56 | 1.0 | 2.0 | 0.00 | 0.17 | 0.17 | 99 | 1017.5 |
| 20260506175653 | 69 | 98 | 1.0 | 2.0 | 0.00 | 0.17 | 0.17 | 99 | 1017.5 |
| 20260506175150 | 68 | 65 | 2.0 | 2.0 | 0.00 | 0.17 | 0.17 | 99 | 1017.5 |
| 20260506174643 | 68 | 68 | 1.0 | 2.0 | 0.00 | 0.17 | 0.17 | 99 | 1017.6 |
| 20260506174139 | 68 | 66 | 2.0 | 2.0 | 0.00 | 0.17 | 0.17 | 99 | 1017.4 |
| 20260506173637 | 67 | 89 | 0.0 | 2.0 | 0.00 | 0.17 | 0.17 | 99 | 1017.1 |
| 20260506173133 | 67 | 130 | 2.0 | 2.0 | 0.00 | 0.17 | 0.17 | 99 | 1016.9 |
| 20260506172630 | 67 | 68 | 0.0 | 2.0 | 0.00 | 0.17 | 0.17 | 99 | 1016.8 |
| 20260506172127 | 66 | 57 | 0.0 | 2.0 | 0.00 | 0.17 | 0.17 | 99 | 1016.8 |
| 20260506171624 | 66 | 75 | 2.0 | 2.0 | 0.00 | 0.17 | 0.17 | 99 | 1016.9 |
| 20260506171122 | 66 | 71 | 2.0 | 3.0 | 0.00 | 0.17 | 0.17 | 99 | 1016.5 |
| 20260506170619 | 66 | 67 | 0.0 | 2.0 | 0.00 | 0.17 | 0.17 | 99 | 1016.6 |
| 20260506170116 | 65 | 80 | 2.0 | 2.0 | 0.00 | 0.17 | 0.17 | 99 | 1016.3 |
| 20260506165615 | 65 | 59 | 1.0 | 2.0 | 0.00 | 0.17 | 0.17 | 99 | 1016.4 |
| 20260506165110 | 65 | 69 | 1.0 | 2.0 | 0.00 | 0.17 | 0.17 | 99 | 1016.2 |
| 20260506164608 | 66 | 97 | 1.0 | 2.0 | 0.00 | 0.17 | 0.17 | 99 | 1016.3 |
| 20260506164105 | 66 | 86 | 2.0 | 2.0 | 0.00 | 0.17 | 0.17 | 99 | 1016.2 |
| 20260506163601 | 67 | 45 | 0.0 | 2.0 | 0.00 | 0.17 | 0.17 | 99 | 1016.0 |
| 20260506163057 | 67 | 91 | 1.0 | 2.0 | 0.00 | 0.17 | 0.17 | 99 | 1015.9 |
| 20260506162553 | 66 | 72 | 0.0 | 1.0 | 0.00 | 0.17 | 0.17 | 99 | 1016.1 |
| 20260506162051 | 66 | 98 | 0.0 | 2.0 | 0.00 | 0.17 | 0.17 | 99 | 1016.1 |
| 20260506161548 | 66 | 89 | 0.0 | 2.0 | 0.00 | 0.17 | 0.17 | 99 | 1015.8 |
| 20260506161045 | 67 | 78 | 0.0 | 2.0 | 0.00 | 0.17 | 0.17 | 99 | 1015.8 |
| 20260506160543 | 67 | 85 | 2.0 | 2.0 | 0.00 | 0.17 | 0.17 | 99 | 1016.1 |
| 20260506160039 | 67 | 59 | 2.0 | 2.0 | 0.00 | 0.17 | 0.17 | 99 | 1015.8 |
| 20260506155538 | 67 | 70 | 1.0 | 2.0 | 0.00 | 0.17 | 0.17 | 99 | 1015.8 |
| 20260506153709 | 67 | 78 | 1.0 | 2.0 | 0.00 | 0.17 | 0.17 | 99 | 1015.6 |
| 20260506153206 | 67 | 84 | 1.0 | 2.0 | 0.00 | 0.17 | 0.17 | 99 | 1015.5 |
| 20260506152703 | 67 | 64 | 0.0 | 2.0 | 0.00 | 0.17 | 0.17 | 99 | 1015.6 |
| 20260506152200 | 67 | 65 | 1.0 | 2.0 | 0.00 | 0.17 | 0.17 | 99 | 1015.5 |
| 20260506151700 | 67 | 43 | 1.0 | 2.0 | 0.00 | 0.17 | 0.17 | 99 | 1015.7 |
| 20260506151155 | 67 | 71 | 1.0 | 2.0 | 0.00 | 0.17 | 0.17 | 99 | 1015.6 |
| 20260506150652 | 68 | 64 | 0.0 | 2.0 | 0.00 | 0.17 | 0.17 | 99 | 1015.4 |
| 20260506150149 | 68 | 68 | 0.0 | 2.0 | 0.00 | 0.17 | 0.17 | 99 | 1015.4 |
| 20260506145646 | 68 | 66 | 0.0 | 2.0 | 0.00 | 0.17 | 0.17 | 99 | 1015.3 |
| 20260506145143 | 68 | 72 | 2.0 | 2.0 | 0.00 | 0.17 | 0.17 | 99 | 1015.7 |
| 20260506144641 | 68 | 54 | 0.0 | 2.0 | 0.00 | 0.17 | 0.17 | 99 | 1015.7 |
| 20260506144137 | 68 | 333 | 0.0 | 2.0 | 0.02 | 0.17 | 0.17 | 99 | 1015.8 |
| 20260506143635 | 68 | 83 | 0.0 | 2.0 | 0.02 | 0.17 | 0.17 | 99 | 1015.8 |
| 20260506143132 | 68 | 18 | 0.0 | 2.0 | 0.00 | 0.16 | 0.16 | 99 | 1015.6 |
| 20260506142631 | 68 | 37 | 0.0 | 2.0 | 0.00 | 0.16 | 0.16 | 99 | 1015.6 |
| 20260506142129 | 68 | 142 | 0.0 | 2.0 | 0.00 | 0.16 | 0.16 | 99 | 1015.8 |
| 20260506141626 | 68 | 27 | 1.0 | 2.0 | 0.00 | 0.16 | 0.16 | 99 | 1015.9 |
| 20260506141124 | 68 | 87 | 1.0 | 2.0 | 0.00 | 0.16 | 0.16 | 99 | 1015.8 |
| 20260506140621 | 68 | 2 | 0.0 | 2.0 | 0.00 | 0.16 | 0.16 | 99 | 1015.7 |
| 20260506140118 | 68 | 61 | 0.0 | 2.0 | 0.00 | 0.16 | 0.16 | 99 | 1015.7 |
| 20260506135615 | 68 | 93 | 0.0 | 2.0 | 0.00 | 0.16 | 0.16 | 99 | 1015.7 |
| 20260506135111 | 68 | 79 | 0.0 | 2.0 | 0.00 | 0.16 | 0.16 | 99 | 1015.8 |
| 20260506134608 | 69 | 121 | 1.0 | 2.0 | 0.00 | 0.16 | 0.16 | 99 | 1015.6 |
| 20260506134104 | 69 | 103 | 0.0 | 2.0 | 0.00 | 0.16 | 0.16 | 99 | 1015.7 |
| 20260506133601 | 69 | 103 | 0.0 | 2.0 | 0.00 | 0.16 | 0.16 | 99 | 1015.6 |
| 20260506133058 | 69 | 68 | 0.0 | 2.0 | 0.00 | 0.16 | 0.16 | 99 | 1015.6 |
| 20260506132555 | 69 | 87 | 1.0 | 2.0 | 0.00 | 0.16 | 0.16 | 99 | 1015.7 |
| 20260506132053 | 69 | 43 | 1.0 | 2.0 | 0.02 | 0.16 | 0.16 | 99 | 1015.7 |
| 20260506131550 | 69 | 52 | 1.0 | 2.0 | 0.02 | 0.16 | 0.16 | 99 | 1015.7 |
| 20260506131046 | 69 | 92 | 0.0 | 2.0 | 0.14 | 0.16 | 0.16 | 99 | 1015.7 |
| 20260506130543 | 69 | 88 | 0.0 | 2.0 | 0.14 | 0.15 | 0.15 | 99 | 1015.7 |
| 20260506130041 | 69 | 23 | 0.0 | 2.0 | 0.05 | 0.13 | 0.13 | 99 | 1015.7 |
| 20260506125539 | 69 | 111 | 0.0 | 2.0 | 0.00 | 0.13 | 0.13 | 98 | 1015.6 |
| 20260506125036 | 69 | 69 | 1.0 | 2.0 | 0.02 | 0.13 | 0.13 | 99 | 1015.8 |
| 20260506124534 | 70 | 356 | 0.0 | 3.0 | 0.05 | 0.12 | 0.12 | 99 | 1015.8 |
| 20260506124031 | 69 | 84 | 1.0 | 2.0 | 0.28 | 0.12 | 0.12 | 99 | 1015.8 |
| 20260506123529 | 70 | 23 | 1.0 | 2.0 | 0.38 | 0.11 | 0.11 | 98 | 1015.8 |
| 20260506123027 | 70 | 148 | 1.0 | 2.0 | 0.09 | 0.06 | 0.06 | 98 | 1015.9 |
| 20260506122523 | 70 | 64 | 0.0 | 2.0 | 0.07 | 0.05 | 0.05 | 98 | 1016.0 |
| 20260506122022 | 70 | 15 | 0.0 | 2.0 | 0.09 | 0.04 | 0.04 | 98 | 1016.0 |
| 20260506121519 | 70 | 110 | 0.0 | 2.0 | 0.17 | 0.04 | 0.04 | 98 | 1015.8 |
| 20260506121015 | 71 | 144 | 1.0 | 2.0 | 0.12 | 0.03 | 0.03 | 99 | 1015.7 |
| 20260506120513 | 70 | 17 | 0.0 | 2.0 | 0.00 | 0.01 | 0.01 | 99 | 1015.9 |
| 20260506120010 | 70 | 95 | 0.0 | 2.0 | 0.00 | 0.01 | 0.01 | 98 | 1016.0 |
| 20260506115508 | 70 | 86 | 0.0 | 2.0 | 0.00 | 0.01 | 0.01 | 98 | 1015.8 |
| 20260506115006 | 70 | 45 | 0.0 | 2.0 | 0.00 | 0.01 | 0.01 | 98 | 1016.0 |
| 20260506114503 | 70 | 45 | 0.0 | 2.0 | 0.00 | 0.01 | 0.01 | 98 | 1015.9 |
| 20260506114002 | 70 | 32 | 0.0 | 2.0 | 0.00 | 0.01 | 0.01 | 98 | 1016.0 |
| 20260506113459 | 70 | 291 | 0.0 | 1.0 | 0.00 | 0.01 | 0.01 | 98 | 1015.9 |
| 20260506112955 | 70 | 60 | 1.0 | 2.0 | 0.00 | 0.01 | 0.01 | 98 | 1016.0 |
| 20260506112453 | 70 | 87 | 1.0 | 2.0 | 0.00 | 0.01 | 0.01 | 98 | 1016.0 |
| 20260506111950 | 70 | 45 | 1.0 | 2.0 | 0.00 | 0.01 | 0.01 | 98 | 1016.0 |
| 20260506111448 | 70 | 114 | 1.0 | 2.0 | 0.00 | 0.01 | 0.01 | 98 | 1016.2 |
| 20260506110945 | 70 | 127 | 0.0 | 3.0 | 0.00 | 0.01 | 0.01 | 98 | 1016.4 |
| 20260506110443 | 70 | 58 | 1.0 | 2.0 | 0.00 | 0.01 | 0.01 | 98 | 1016.3 |
| 20260506105939 | 70 | 65 | 0.0 | 2.0 | 0.00 | 0.01 | 0.01 | 98 | 1016.3 |
| 20260506105435 | 70 | 43 | 0.0 | 2.0 | 0.00 | 0.01 | 0.01 | 98 | 1016.4 |
| 20260506104933 | 70 | 27 | 1.0 | 2.0 | 0.00 | 0.01 | 0.01 | 98 | 1016.6 |
| 20260506104431 | 70 | 62 | 1.0 | 2.0 | 0.00 | 0.01 | 0.01 | 98 | 1016.7 |